2021-061B (49004 NORAD) Tracking and Keplerian Element Data

This shows tracking and keplerian element data for the satellite.

Feedback or suggestion? Click here.




ElementValue
Catalog49004
Name2021-061B
Epoch Orbit1282
Epoch Day269.11794459
Epoch Year2021
RAAN334.986
Inclination97.5308
Eccentricity0.0012514
Argument of Perigee4.5418
Mean Anonmoly53.8212
Mean Motion15.10161706
Decay Rate1.533E-05
L11 49004U 21061B 21269.11794459 .00001533 00000-0 97685-4 0 9998
L22 49004 97.5308 334.9860 0012514 4.5418 53.8212 15.10161706 12821

Live tracking and technical data element details for 2021-061B (NORAD 49004). 2021-061B can be tracked NOW for your location showing map with azimuth and elevation plus other details from your city location.

Track the satellite on the map from your city or location and see movement details for azimuth, elevation, latitude, longitude, range, height, and movement on the map or in text.







IsCatalogInMostPopularTable: catalog: 49004, numindb: 17
Update: records affected: 1



GetName: 49004 2021-061B

Hit Count: updated at: Sun, 26 Sep 2021 15:41:24 GMT